This is the latest recevied weather packets stored in our database for station/object vk4zu-13. If no packets are shown the sender has not sent any weather packets the latest 10 day(s).
| Time | Temp. | Humidity | Pressure | Rain* | Wind** | Luminosity | Snow |
|---|---|---|---|---|---|---|---|
| 1777599644 | 25.56° C | 64% | 1024.4 hPa | 0 mm | - | 744 W/m² | - |
| 1777599583 | 25.56° C | 65% | 1024.4 hPa | 0 mm | - | 742 W/m² | - |
| 1777599523 | 25.56° C | 66% | 1024.4 hPa | 0 mm | - | 735 W/m² | - |
| 1777599484 | 25.56° C | 65% | 1024.5 hPa | 0 mm | - | 737 W/m² | - |
| 1777599384 | 25.56° C | 67% | 1024.4 hPa | 0 mm | - | 737 W/m² | - |
| 1777599313 | 25.56° C | 65% | 1024.5 hPa | 0 mm | - | 737 W/m² | - |
| 1777599250 | 25.56° C | 65% | 1024.5 hPa | 0 mm | - | 737 W/m² | - |
| 1777599191 | 25.56° C | 65% | 1024.6 hPa | 0 mm | - | 737 W/m² | - |
| 1777599127 | 25.56° C | 65% | 1024.6 hPa | 0 mm | - | 737 W/m² | - |
| 1777599064 | 25.56° C | 66% | 1024.6 hPa | 0 mm | - | 738 W/m² | - |
| 1777599006 | 25.56° C | 64% | 1024.6 hPa | 0 mm | - | 747 W/m² | - |
| 1777598934 | 25.56° C | 63% | 1024.5 hPa | 0 mm | - | 759 W/m² | - |
| 1777598865 | 25.56° C | 64% | 1024.7 hPa | 0 mm | - | 752 W/m² | - |
| 1777598795 | 25.56° C | 65% | 1024.7 hPa | 0 mm | - | 752 W/m² | - |
| 1777598725 | 25.56° C | 64% | 1024.7 hPa | 0 mm | - | 745 W/m² | - |
| 1777598656 | 26.11° C | 68% | 1024.7 hPa | 0 mm | - | 745 W/m² | - |
| 1777598612 | 25.56° C | 65% | 1024.8 hPa | 0 mm | - | 761 W/m² | - |
| 1777598587 | 25.56° C | 65% | 1024.8 hPa | 0 mm | - | 749 W/m² | - |
| 1777598455 | 25.56° C | 64% | 1024.8 hPa | 0 mm | - | 737 W/m² | - |
| 1777598380 | 25.56° C | 65% | 1024.8 hPa | 0 mm | - | 738 W/m² | - |
| 1777598318 | 25.56° C | 67% | 1025.1 hPa | 0 mm | - | 744 W/m² | - |
| 1777598258 | 25.56° C | 67% | 1025 hPa | 0 mm | - | 745 W/m² | - |
| 1777598188 | 25° C | 67% | 1024.9 hPa | 0 mm | - | 613 W/m² | - |
| 1777598130 | 25° C | 67% | 1024.9 hPa | 0 mm | - | 613 W/m² | - |
| 1777598101 | 25° C | 68% | 1025.1 hPa | 0 mm | - | 796 W/m² | - |
* Rain latest hour (hover to see other rain measurements)
** Current wind speed in m/s (hover to see current wind gust speed)